Showing default

COSMOS 1692, 16140

Orbit data source: Space-Track

COSMOS 1692, 16140 is a payload satellite owned by GUKOS (CIS) in LEO that was launched on Wed, 09 Oct 1985 UTC via a TSIKLON-3 launch vehicle from the Plesetsk Missile And Space Complex (PKMTR). Payload-class satellites include a variety of spacecraft equipped with specific instruments for various scientific and technological missions. These include communications satellites like Starlink; space stations such as the ISS; scientific satellites like the Hubble; Earth observation satellites from companies like Planet Labs, Umbra, and HawkEye 360; GPS; miniature CubeSats for education and research; and military/defense satellites.

Loading next visibility...
Identifier
16140, 1985-094C
Orbit
LEO
Country
Flag of CISCIS
Related business
Manufacturer
NPO PM
Mission
Spacecraft
Bus & Motor
STRELA-3, Unknown motor
Mass
225 kg wet, 225 kg dry
Launch date (UTC)
1985-10-09 (41 years ago)
Launch vehicle
TSIKLON-3
Launch site
Plesetsk Missile And Space Complex (PKMTR)
Object type
Payload
Rocket body
Debris
Shape & HBR
Unknown
Radar Cross Section
Medium (>0.1 m² and <1 m²)

Expand to show TLE details & history
Last TLE update: 11 hours ago

TLE from 11 hours ago
0 COSMOS 1692
1 16140U 85094C   26127.11301287  .00000022  00000-0  62121-4 0  9999
2 16140  82.5997 256.7079 0018700  99.8659  73.2047 12.64914525873181
Epoch: 2026-05-07T02:42Z
TLE epoch observation values (Epoch: 2026-05-07T02:42:44.311Z)
Latitude
6.59727°
Longitude
170.203°
Altitude
1,400.668 km
Speed
7.162 km/s
True Right ascension
05h 03m 24s
True Declination
6° 33' 41"
Sunlit
Object was in daylight at epoch
Visualization orbit readout
Latitude
Unknown
Longitude
Unknown
Altitude
Unknown
Speed
Unknown
Apparent Right ascension
Unknown
Apparent Declination
Unknown
Sunlit
N/A
Visualization observer readout
Local Sidereal Time
21:43:31
Azimuth
Unknown
Elevation
Unknown
Doppler factor
Unknown
Orbital elements
Apogee altitude
1,414.587 km
Perigee altitude
1,385.496 km
Semi-major axis
7,778.178 km
Eccentricity
0.00187
Inclination
82.5997°
RAAN
256.7079°
Arg. of periapsis
99.8659°
True anomaly
73.40998°
Mean anomaly
73.2047°
Eccentric anomaly
73.30733°
Mean motion
3.16393 °/min
Orbital period
113.78 mins
BSTAR
0.000062121
Loading maneuver chart data...
Computing Atmospheric mass density...
Loading historical data...
Loading historical data...
Loading historical data...
Loading historical data...
Loading historical data...
Loading historical data...
Loading historical data...

Documentation

Showing up to 5 results
|